contact:dominique.lefevre@mio.osupytheas.fr, maurice.libes@osupytheas.fr, didier.mallarino@osupytheas.fr
Project:EMSO http://www.emso-fr.org/EMSO-France
Depth: 2436.0 m
Title:EMSO Ligure Ouest : Data MII capteur AQUADOPP
Date,Latitude,Longitude,X_East,Y_North,Z_Up,Amplitude_X,Amplitude_Y,Amplitude_Z,Batterie,SoundSpeed,Heading,Pitch,Roll,Pressure,TIS,Speed,Direction
, degrees North, degrees East, m.s-1, m.s-1,m.s-1, 1, 1, 1, Volt, m.s-1, degree, degree, degree, dbar, degree_C, m.s-1, degree
2021-08-01T00:04:03,42.805,6.029,-0.015,-0.004,0.012,103.0,102.0,100.0,13.4,1505.2,325.6,-0.7,1.8,2470.649,13.29,0.015,255.1
2021-08-01T00:07:03,42.805,6.029,-0.042,-0.011,-0.016,103.0,102.0,102.0,13.4,1505.2,329.0,-0.7,1.9,2470.614,13.29,0.043,255.3
2021-08-01T00:10:03,42.805,6.029,-0.023,-0.005,0.007,103.0,103.0,101.0,13.4,1505.2,326.1,-0.8,1.8,2470.623,13.29,0.023,257.7
2021-08-01T00:13:03,42.805,6.029,-0.027,-0.013,-0.02,102.0,104.0,101.0,13.4,1505.2,326.1,-0.7,1.8,2470.614,13.29,0.029,244.3
2021-08-01T00:16:03,42.805,6.029,-0.023,0.009,-0.004,102.0,102.0,101.0,13.4,1505.2,326.3,-0.8,1.8,2470.663,13.29,0.024,291.4
2021-08-01T00:19:03,42.805,6.029,-0.009,-0.005,0.004,103.0,103.0,100.0,13.4,1505.2,328.7,-0.7,1.8,2470.618,13.29,0.01,240.9
2021-08-01T00:22:03,42.805,6.029,-0.003,-0.018,-0.004,102.0,102.0,101.0,13.4,1505.2,325.9,-0.8,1.9,2470.609,13.29,0.018,189.5
2021-08-01T00:25:03,42.805,6.029,-0.041,-0.016,-0.003,103.0,101.0,101.0,13.3,1505.2,329.5,-0.8,1.8,2470.597,13.29,0.044,248.7
2021-08-01T00:28:03,42.805,6.029,-0.017,-0.006,0.004,103.0,102.0,100.0,13.3,1505.2,326.7,-0.7,1.8,2470.605,13.29,0.018,250.6
2021-08-01T00:31:03,42.805,6.029,-0.017,0.0,0.004,102.0,103.0,100.0,13.4,1505.2,330.0,-0.7,1.8,2470.599,13.29,0.017,270.0
2021-08-01T00:34:03,42.805,6.029,-0.012,-0.01,-0.014,103.0,103.0,101.0,13.4,1505.2,326.9,-0.8,1.8,2470.603,13.29,0.015,230.2
2021-08-01T00:37:03,42.805,6.029,-0.032,-0.024,-0.023,102.0,101.0,102.0,13.4,1505.2,326.8,-0.8,1.8,2470.563,13.29,0.04,233.1
2021-08-01T00:40:03,42.805,6.029,-0.006,-0.024,-0.002,103.0,102.0,102.0,13.4,1505.2,330.6,-0.8,1.8,2470.644,13.29,0.024,194.0
2021-08-01T00:43:03,42.805,6.029,-0.026,-0.001,-0.021,103.0,102.0,103.0,13.4,1505.2,329.0,-0.8,1.8,2470.625,13.29,0.026,267.8
2021-08-01T00:46:03,42.805,6.029,-0.037,-0.012,-0.022,103.0,102.0,101.0,13.4,1505.2,330.1,-0.8,1.9,2470.645,13.29,0.038,252.0
2021-08-01T00:49:03,42.805,6.029,-0.005,-0.004,0.009,103.0,103.0,101.0,13.3,1505.2,326.1,-0.7,1.8,2470.61,13.29,0.006,231.3
2021-08-01T00:52:03,42.805,6.029,0.0,-0.018,0.007,103.0,102.0,101.0,13.4,1505.2,328.2,-0.7,1.9,2470.665,13.29,0.018,180.0
2021-08-01T00:55:03,42.805,6.029,-0.032,-0.016,-0.025,102.0,102.0,101.0,13.4,1505.2,327.5,-0.8,1.8,2470.617,13.29,0.035,243.4
2021-08-01T00:58:03,42.805,6.029,-0.04,0.0,-0.014,103.0,102.0,101.0,13.4,1505.2,329.4,-0.7,1.8,2470.608,13.29,0.04,270.0
2021-08-01T01:04:03,42.805,6.029,-0.029,-0.019,-0.031,104.0,103.0,103.0,13.4,1505.2,330.8,-0.7,1.8,2470.643,13.28,0.034,236.8
2021-08-01T01:07:03,42.805,6.029,-0.032,0.002,0.005,102.0,102.0,101.0,13.4,1505.2,328.5,-0.8,1.8,2470.667,13.28,0.032,273.6
2021-08-01T01:10:03,42.805,6.029,-0.006,-0.013,0.006,104.0,103.0,102.0,13.4,1505.2,329.7,-0.8,1.8,2470.652,13.28,0.014,204.8
2021-08-01T01:13:03,42.805,6.029,-0.025,0.002,-0.002,104.0,104.0,100.0,13.4,1505.2,328.2,-0.8,1.8,2470.641,13.29,0.025,274.6
2021-08-01T01:16:03,42.805,6.029,-0.015,0.005,-0.017,103.0,102.0,101.0,13.3,1505.2,326.6,-0.8,1.8,2470.674,13.29,0.015,288.4
2021-08-01T01:19:03,42.805,6.029,-0.019,-0.005,-0.015,103.0,103.0,101.0,13.4,1505.2,326.1,-0.7,1.8,2470.614,13.29,0.019,255.3
2021-08-01T01:22:03,42.805,6.029,-0.021,-0.001,0.005,103.0,103.0,101.0,13.4,1505.2,330.4,-0.8,1.8,2470.619,13.29,0.021,267.3
2021-08-01T01:25:03,42.805,6.029,-0.032,-0.01,-0.022,103.0,101.0,101.0,13.4,1505.2,325.5,-0.7,1.8,2470.608,13.29,0.033,252.6
2021-08-01T01:28:03,42.805,6.029,-0.041,0.0,-0.002,101.0,103.0,102.0,13.4,1505.2,326.7,-0.8,1.8,2470.6,13.29,0.041,270.0
2021-08-01T01:31:03,42.805,6.029,-0.011,-0.009,-0.011,102.0,102.0,103.0,13.4,1505.2,329.0,-0.7,1.8,2470.607,13.29,0.014,230.7
2021-08-01T01:34:03,42.805,6.029,-0.033,0.019,-0.003,102.0,102.0,101.0,13.4,1505.2,330.7,-0.7,1.9,2470.597,13.29,0.038,299.9
2021-08-01T01:37:03,42.805,6.029,-0.02,-0.011,-0.018,102.0,102.0,101.0,13.4,1505.2,326.4,-0.8,1.8,2470.6,13.29,0.022,241.2
2021-08-01T01:40:03,42.805,6.029,-0.015,-0.001,-0.036,103.0,102.0,101.0,13.3,1505.2,326.9,-0.7,1.9,2470.589,13.29,0.015,266.2
2021-08-01T01:43:03,42.805,6.029,-0.028,0.009,0.007,103.0,102.0,102.0,13.4,1505.2,329.6,-0.7,1.9,2470.605,13.29,0.029,287.8
2021-08-01T01:46:03,42.805,6.029,-0.029,-0.013,0.019,103.0,103.0,102.0,13.4,1505.2,329.3,-0.7,1.8,2470.576,13.29,0.031,245.9
2021-08-01T01:49:03,42.805,6.029,-0.009,-0.002,-0.005,102.0,102.0,101.0,13.3,1505.2,328.8,-0.8,1.8,2470.607,13.29,0.009,257.5
2021-08-01T01:52:03,42.805,6.029,-0.011,0.004,0.018,103.0,103.0,101.0,13.4,1505.2,325.0,-0.8,1.9,2470.598,13.29,0.011,290.0
2021-08-01T01:55:03,42.805,6.029,-0.01,-0.011,-0.023,103.0,102.0,102.0,13.4,1505.2,325.2,-0.8,1.8,2470.6,13.29,0.014,222.3
2021-08-01T01:58:03,42.805,6.029,-0.027,-0.001,0.01,103.0,102.0,102.0,13.3,1505.2,326.4,-0.7,1.8,2470.595,13.29,0.027,267.9
2021-08-01T02:04:03,42.805,6.029,-0.018,-0.002,0.006,103.0,102.0,101.0,13.4,1505.2,329.4,-0.7,1.8,2470.626,13.28,0.018,263.7
2021-08-01T02:07:03,42.805,6.029,-0.016,0.001,-0.016,103.0,104.0,101.0,13.4,1505.2,327.8,-0.8,1.9,2470.599,13.28,0.016,273.6
2021-08-01T02:10:03,42.805,6.029,-0.04,-0.018,0.0,103.0,103.0,102.0,13.4,1505.2,329.1,-0.8,1.8,2470.593,13.28,0.043,245.8
2021-08-01T02:13:03,42.805,6.029,-0.038,-0.016,-0.062,104.0,100.0,101.0,13.3,1505.2,329.2,-0.8,1.8,2470.569,13.28,0.041,247.2
2021-08-01T02:16:03,42.805,6.029,-0.051,-0.018,-0.056,102.0,103.0,101.0,13.4,1505.2,329.1,-0.8,1.8,2470.617,13.28,0.054,250.6
2021-08-01T02:19:03,42.805,6.029,-0.031,0.008,0.001,103.0,102.0,101.0,13.4,1505.2,327.7,-0.8,1.8,2470.651,13.28,0.032,284.5
2021-08-01T02:22:03,42.805,6.029,-0.028,0.011,-0.033,103.0,102.0,101.0,13.4,1505.2,329.2,-0.8,1.8,2470.61,13.28,0.03,291.4
2021-08-01T02:25:03,42.805,6.029,-0.043,-0.015,-0.032,103.0,103.0,100.0,13.4,1505.2,326.2,-0.7,1.8,2470.582,13.28,0.045,250.8
2021-08-01T02:28:03,42.805,6.029,-0.013,0.006,-0.02,103.0,103.0,101.0,13.4,1505.2,325.5,-0.8,1.8,2470.612,13.28,0.014,294.8
2021-08-01T02:31:03,42.805,6.029,-0.025,-0.005,-0.008,103.0,101.0,101.0,13.4,1505.2,330.8,-0.7,1.8,2470.569,13.29,0.025,258.7
2021-08-01T02:34:03,42.805,6.029,-0.015,0.005,-0.016,102.0,102.0,101.0,13.3,1505.2,328.5,-0.7,1.8,2470.506,13.28,0.015,288.4
2021-08-01T02:37:03,42.805,6.029,-0.024,0.0,-0.012,102.0,102.0,102.0,13.3,1505.2,326.3,-0.8,1.8,2470.614,13.28,0.024,270.0
2021-08-01T02:40:03,42.805,6.029,0.004,-0.003,-0.025,103.0,104.0,102.0,13.3,1505.2,327.3,-0.7,1.8,2470.579,13.28,0.005,126.9
2021-08-01T02:43:03,42.805,6.029,-0.012,0.008,-0.034,103.0,102.0,102.0,13.4,1505.2,330.5,-0.8,1.8,2470.558,13.29,0.014,303.7
2021-08-01T02:46:03,42.805,6.029,-0.045,0.001,-0.01,104.0,102.0,102.0,13.4,1505.2,328.2,-0.8,1.8,2470.576,13.29,0.045,271.3
2021-08-01T02:49:03,42.805,6.029,0.002,0.0,-0.015,102.0,103.0,102.0,13.4,1505.2,327.7,-0.7,1.8,2470.56,13.29,0.002,90.0
2021-08-01T02:52:03,42.805,6.029,-0.033,-0.041,-0.044,103.0,103.0,101.0,13.3,1505.2,325.4,-0.7,1.9,2470.537,13.29,0.052,218.8
2021-08-01T02:55:03,42.805,6.029,-0.05,-0.01,-0.026,103.0,102.0,101.0,13.3,1505.2,330.3,-0.7,1.9,2470.542,13.29,0.05,258.7
2021-08-01T02:58:03,42.805,6.029,-0.017,0.001,-0.024,104.0,104.0,101.0,13.4,1505.2,328.5,-0.7,1.8,2470.557,13.28,0.017,273.4
2021-08-01T03:04:03,42.805,6.029,-0.019,-0.006,0.003,104.0,105.0,102.0,13.3,1505.2,326.4,-0.7,1.8,2470.636,13.28,0.019,252.5
2021-08-01T03:07:03,42.805,6.029,-0.031,-0.004,-0.009,104.0,103.0,102.0,13.4,1505.2,324.9,-0.8,1.8,2470.591,13.28,0.031,262.7
2021-08-01T03:10:03,42.805,6.029,-0.01,0.011,0.019,103.0,103.0,102.0,13.3,1505.2,326.6,-0.7,1.8,2470.629,13.28,0.014,317.7
2021-08-01T03:13:03,42.805,6.029,-0.032,-0.003,-0.009,104.0,102.0,102.0,13.3,1505.2,330.1,-0.7,1.8,2470.599,13.28,0.032,264.6
2021-08-01T03:16:03,42.805,6.029,-0.018,-0.019,-0.005,103.0,103.0,102.0,13.4,1505.2,328.7,-0.8,1.8,2470.595,13.28,0.026,223.5
2021-08-01T03:19:03,42.805,6.029,-0.031,-0.002,-0.008,104.0,104.0,100.0,13.3,1505.2,329.6,-0.7,1.8,2470.612,13.28,0.031,266.3
2021-08-01T03:22:03,42.805,6.029,-0.022,0.007,0.001,102.0,104.0,102.0,13.4,1505.2,325.7,-0.8,1.8,2470.574,13.28,0.023,287.6
2021-08-01T03:25:03,42.805,6.029,-0.019,-0.002,0.024,103.0,103.0,103.0,13.4,1505.2,330.6,-0.7,1.8,2470.573,13.28,0.019,264.0
2021-08-01T03:28:03,42.805,6.029,-0.039,0.001,-0.025,103.0,102.0,101.0,13.4,1505.2,329.2,-0.8,1.8,2470.581,13.28,0.039,271.5
2021-08-01T03:31:03,42.805,6.029,-0.018,-0.014,-0.026,103.0,103.0,101.0,13.4,1505.2,330.0,-0.7,1.8,2470.57,13.28,0.022,232.1
2021-08-01T03:34:03,42.805,6.029,-0.021,0.007,-0.022,102.0,102.0,101.0,13.4,1505.2,328.2,-0.8,1.8,2470.573,13.28,0.022,288.4
2021-08-01T03:37:03,42.805,6.029,-0.026,-0.016,-0.008,104.0,102.0,103.0,13.4,1505.2,329.2,-0.7,1.8,2470.556,13.28,0.03,238.4
2021-08-01T03:40:03,42.805,6.029,-0.027,0.008,-0.017,103.0,103.0,102.0,13.4,1505.2,326.4,-0.7,1.8,2470.576,13.28,0.028,286.5
2021-08-01T03:43:03,42.805,6.029,-0.025,0.01,-0.027,102.0,103.0,102.0,13.3,1505.2,328.8,-0.8,1.8,2470.563,13.28,0.026,291.8
2021-08-01T03:46:03,42.805,6.029,-0.046,-0.009,-0.005,103.0,104.0,100.0,13.4,1505.2,325.7,-0.8,1.8,2470.561,13.28,0.046,258.9
2021-08-01T03:49:03,42.805,6.029,-0.009,-0.004,-0.012,104.0,102.0,102.0,13.4,1505.2,330.0,-0.7,1.8,2470.538,13.28,0.009,246.0
2021-08-01T03:52:03,42.805,6.029,-0.023,-0.026,-0.019,102.0,103.0,102.0,13.4,1505.2,327.5,-0.7,1.8,2470.586,13.28,0.034,221.5
2021-08-01T03:55:03,42.805,6.029,-0.027,-0.013,-0.014,104.0,102.0,102.0,13.4,1505.2,328.1,-0.7,1.8,2470.573,13.28,0.029,244.3
2021-08-01T03:58:03,42.805,6.029,-0.021,-0.02,0.0,103.0,103.0,101.0,13.4,1505.2,328.5,-0.7,1.8,2470.529,13.28,0.028,226.4
2021-08-01T04:04:03,42.805,6.029,-0.031,0.007,-0.015,104.0,104.0,100.0,13.4,1505.2,328.9,-0.7,1.8,2470.584,13.28,0.031,282.7
2021-08-01T04:07:03,42.805,6.029,-0.034,-0.013,-0.03,102.0,102.0,102.0,13.4,1505.2,328.8,-0.8,1.8,2470.598,13.28,0.036,249.1
2021-08-01T04:10:03,42.805,6.029,-0.045,0.0,-0.013,104.0,102.0,101.0,13.3,1505.2,330.2,-0.7,1.8,2470.579,13.28,0.045,270.0
2021-08-01T04:13:03,42.805,6.029,-0.047,0.007,-0.009,103.0,103.0,101.0,13.4,1505.2,327.2,-0.7,1.8,2470.568,13.28,0.047,278.5
2021-08-01T04:16:03,42.805,6.029,-0.024,0.007,0.02,104.0,103.0,101.0,13.4,1505.2,325.2,-0.7,1.8,2470.574,13.28,0.025,286.3
2021-08-01T04:19:03,42.805,6.029,-0.022,-0.012,-0.005,102.0,104.0,101.0,13.4,1505.2,328.9,-0.7,1.8,2470.565,13.28,0.025,241.4
2021-08-01T04:22:03,42.805,6.029,-0.033,-0.001,-0.026,102.0,103.0,101.0,13.4,1505.2,327.8,-0.8,1.8,2470.568,13.28,0.033,268.3
2021-08-01T04:25:03,42.805,6.029,-0.043,0.031,-0.005,103.0,103.0,101.0,13.3,1505.2,329.9,-0.7,1.9,2470.574,13.28,0.053,305.8
2021-08-01T04:28:03,42.805,6.029,-0.032,-0.004,-0.02,104.0,104.0,102.0,13.4,1505.2,328.8,-0.7,1.8,2470.538,13.28,0.032,262.9
2021-08-01T04:31:03,42.805,6.029,-0.023,0.0,-0.005,103.0,102.0,102.0,13.4,1505.2,329.7,-0.8,1.8,2470.525,13.28,0.023,270.0
2021-08-01T04:34:03,42.805,6.029,-0.017,0.01,0.023,104.0,103.0,102.0,13.3,1505.2,329.9,-0.8,1.8,2470.584,13.28,0.019,300.5
2021-08-01T04:37:03,42.805,6.029,-0.041,0.017,-0.012,103.0,104.0,100.0,13.4,1505.2,329.0,-0.7,1.8,2470.553,13.29,0.044,292.5
2021-08-01T04:40:03,42.805,6.029,-0.038,0.015,0.002,103.0,102.0,101.0,13.4,1505.2,328.0,-0.8,1.8,2470.573,13.29,0.04,291.5
2021-08-01T04:43:03,42.805,6.029,-0.033,0.017,-0.011,103.0,103.0,102.0,13.4,1505.2,328.6,-0.8,1.8,2470.559,13.28,0.037,297.3
2021-08-01T04:46:03,42.805,6.029,-0.011,-0.002,0.005,102.0,103.0,102.0,13.4,1505.2,328.1,-0.8,1.8,2470.551,13.28,0.011,259.7
2021-08-01T04:49:03,42.805,6.029,-0.03,0.01,0.004,103.0,101.0,101.0,13.4,1505.2,329.3,-0.8,1.8,2470.525,13.28,0.031,288.4
2021-08-01T04:52:03,42.805,6.029,-0.021,0.005,0.004,102.0,103.0,102.0,13.4,1505.2,330.1,-0.8,1.8,2470.543,13.28,0.021,283.4
2021-08-01T04:55:03,42.805,6.029,-0.038,0.03,-0.005,103.0,102.0,101.0,13.4,1505.2,327.4,-0.8,1.8,2470.561,13.29,0.048,308.3
2021-08-01T04:58:03,42.805,6.029,-0.034,0.003,0.009,104.0,102.0,104.0,13.4,1505.2,329.7,-0.8,1.8,2470.55,13.29,0.034,275.0
2021-08-01T05:04:03,42.805,6.029,-0.02,-0.012,-0.013,103.0,102.0,102.0,13.3,1505.2,330.0,-0.8,1.8,2470.591,13.28,0.023,239.0
2021-08-01T05:07:03,42.805,6.029,-0.025,-0.004,-0.013,101.0,103.0,102.0,13.4,1505.2,328.6,-0.8,1.8,2470.581,13.28,0.025,260.9
2021-08-01T05:10:03,42.805,6.029,-0.033,0.0,-0.006,102.0,102.0,101.0,13.4,1505.2,326.9,-0.8,1.8,2470.572,13.28,0.033,270.0
2021-08-01T05:13:03,42.805,6.029,-0.035,0.006,-0.009,104.0,102.0,101.0,13.3,1505.2,325.2,-0.7,1.8,2470.552,13.28,0.035,279.7
2021-08-01T05:16:03,42.805,6.029,-0.014,0.0,-0.006,103.0,103.0,101.0,13.3,1505.2,328.5,-0.8,1.8,2470.55,13.28,0.014,270.0
2021-08-01T05:19:03,42.805,6.029,-0.038,-0.01,0.003,103.0,101.0,102.0,13.3,1505.2,328.4,-0.7,1.8,2470.533,13.28,0.039,255.3
2021-08-01T05:22:03,42.805,6.029,-0.042,-0.008,-0.017,104.0,102.0,101.0,13.3,1505.2,327.2,-0.8,1.8,2470.553,13.28,0.042,259.2
2021-08-01T05:25:03,42.805,6.029,-0.012,-0.005,0.013,103.0,103.0,102.0,13.4,1505.2,327.2,-0.8,1.9,2470.53,13.28,0.013,247.4
2021-08-01T05:28:03,42.805,6.029,-0.044,0.006,-0.028,103.0,104.0,101.0,13.3,1505.2,329.7,-0.8,1.8,2470.559,13.28,0.044,277.8
2021-08-01T05:31:03,42.805,6.029,-0.037,0.017,-0.016,103.0,103.0,103.0,13.4,1505.2,329.7,-0.7,1.8,2470.525,13.28,0.04,294.7
2021-08-01T05:34:03,42.805,6.029,-0.05,-0.007,-0.02,102.0,103.0,101.0,13.4,1505.2,325.6,-0.8,1.8,2470.572,13.28,0.05,262.0
2021-08-01T05:37:03,42.805,6.029,-0.039,0.03,0.019,103.0,103.0,102.0,13.3,1505.2,327.6,-0.8,1.8,2470.505,13.28,0.049,307.6
2021-08-01T05:40:03,42.805,6.029,-0.031,-0.018,-0.008,102.0,102.0,101.0,13.4,1505.2,328.1,-0.7,1.8,2470.526,13.28,0.035,239.9
2021-08-01T05:43:03,42.805,6.029,-0.046,0.005,0.002,103.0,102.0,102.0,13.3,1505.2,330.0,-0.7,1.8,2470.552,13.28,0.046,276.2
2021-08-01T05:46:03,42.805,6.029,-0.046,-0.006,-0.012,102.0,102.0,101.0,13.3,1505.2,328.6,-0.8,1.9,2470.523,13.28,0.046,262.6
2021-08-01T05:49:03,42.805,6.029,-0.05,-0.001,0.015,103.0,102.0,102.0,13.4,1505.2,330.3,-0.8,1.8,2470.526,13.28,0.05,268.9
2021-08-01T05:52:03,42.805,6.029,-0.05,-0.006,-0.046,103.0,102.0,101.0,13.4,1505.2,326.7,-0.8,1.8,2470.55,13.28,0.05,263.2
2021-08-01T05:55:03,42.805,6.029,-0.035,-0.009,0.007,103.0,102.0,101.0,13.4,1505.2,326.4,-0.7,1.8,2470.515,13.28,0.036,255.6
2021-08-01T05:58:03,42.805,6.029,-0.061,-0.006,-0.004,103.0,102.0,101.0,13.4,1505.2,329.2,-0.8,1.8,2470.547,13.28,0.061,264.4
2021-08-01T06:04:04,42.805,6.029,-0.058,0.004,-0.005,103.0,102.0,101.0,13.4,1505.2,328.9,-0.8,1.8,2470.568,13.28,0.058,273.9
2021-08-01T06:07:03,42.805,6.029,-0.037,0.011,-0.015,102.0,103.0,101.0,13.3,1505.2,325.9,-0.7,1.8,2470.535,13.28,0.038,286.6
2021-08-01T06:10:03,42.805,6.029,-0.044,0.004,0.009,103.0,104.0,102.0,13.4,1505.2,327.0,-0.7,1.8,2470.569,13.28,0.044,275.2
2021-08-01T06:13:03,42.805,6.029,-0.024,0.01,0.001,103.0,104.0,100.0,13.4,1505.2,328.6,-0.7,1.8,2470.559,13.28,0.026,292.6
2021-08-01T06:16:03,42.805,6.029,-0.039,0.011,-0.031,102.0,102.0,102.0,13.3,1505.2,328.3,-0.7,1.8,2470.55,13.28,0.04,285.7
2021-08-01T06:19:03,42.805,6.029,-0.041,0.008,0.008,104.0,102.0,100.0,13.4,1505.2,330.3,-0.8,1.8,2470.538,13.28,0.041,281.0
2021-08-01T06:22:03,42.805,6.029,-0.029,0.01,-0.005,102.0,102.0,101.0,13.4,1505.2,327.9,-0.8,1.8,2470.539,13.28,0.03,289.0
2021-08-01T06:25:03,42.805,6.029,-0.056,0.026,0.026,103.0,102.0,100.0,13.4,1505.2,328.7,-0.8,1.8,2470.561,13.28,0.061,294.9
2021-08-01T06:28:03,42.805,6.029,0.001,-0.002,-0.005,102.0,102.0,102.0,13.3,1505.2,328.9,-0.8,1.8,2470.506,13.28,0.002,153.4
2021-08-01T06:31:03,42.805,6.029,-0.042,0.0,0.009,104.0,102.0,101.0,13.3,1505.2,329.2,-0.8,1.8,2470.525,13.28,0.042,270.0
2021-08-01T06:34:03,42.805,6.029,-0.036,-0.015,-0.015,103.0,102.0,101.0,13.4,1505.2,328.8,-0.8,1.8,2470.563,13.28,0.039,247.4
2021-08-01T06:37:03,42.805,6.029,-0.029,-0.009,0.009,102.0,102.0,101.0,13.3,1505.2,328.3,-0.7,1.8,2470.555,13.28,0.03,252.8
2021-08-01T06:40:03,42.805,6.029,-0.028,0.01,0.001,102.0,102.0,101.0,13.3,1505.2,328.5,-0.7,1.8,2470.552,13.28,0.029,289.6
2021-08-01T06:43:03,42.805,6.029,-0.052,0.013,-0.018,101.0,102.0,101.0,13.4,1505.2,326.4,-0.7,1.8,2470.53,13.28,0.053,284.0
2021-08-01T06:46:03,42.805,6.029,-0.036,0.019,0.017,103.0,102.0,102.0,13.4,1505.2,329.7,-0.8,1.9,2470.542,13.28,0.04,297.8
2021-08-01T06:49:03,42.805,6.029,-0.042,0.011,-0.006,103.0,102.0,100.0,13.4,1505.2,329.7,-0.8,1.8,2470.52,13.28,0.043,284.7
2021-08-01T06:52:03,42.805,6.029,-0.027,0.017,0.012,102.0,103.0,102.0,13.3,1505.2,325.5,-0.7,1.8,2470.522,13.28,0.031,302.2
2021-08-01T06:55:03,42.805,6.029,-0.023,-0.013,0.002,101.0,102.0,101.0,13.4,1505.2,329.2,-0.7,1.8,2470.523,13.28,0.026,240.5
2021-08-01T06:58:03,42.805,6.029,-0.029,0.013,0.046,102.0,103.0,101.0,13.4,1505.2,330.2,-0.7,1.8,2470.547,13.28,0.031,294.1
2021-08-01T07:04:02,42.805,6.029,-0.032,0.021,-0.025,102.0,102.0,101.0,13.3,1505.2,327.3,-0.7,1.8,2470.541,13.28,0.038,303.3
2021-08-01T07:07:03,42.805,6.029,-0.032,0.009,-0.008,102.0,102.0,102.0,13.3,1505.2,328.5,-0.7,1.8,2470.527,13.28,0.033,285.7
2021-08-01T07:10:03,42.805,6.029,-0.016,0.01,-0.003,102.0,102.0,101.0,13.4,1505.2,330.8,-0.8,1.8,2470.529,13.28,0.018,302.0
2021-08-01T07:13:03,42.805,6.029,-0.031,-0.025,-0.055,102.0,103.0,101.0,13.4,1505.2,325.7,-0.7,1.9,2470.511,13.28,0.039,231.1
2021-08-01T07:16:02,42.805,6.029,-0.024,0.019,0.0,103.0,102.0,101.0,13.3,1505.2,325.7,-0.8,1.8,2470.489,13.28,0.03,308.4
2021-08-01T07:19:03,42.805,6.029,-0.02,0.01,-0.006,102.0,102.0,101.0,13.3,1505.2,328.6,-0.7,1.8,2470.542,13.28,0.022,296.6
2021-08-01T07:22:02,42.805,6.029,-0.056,0.011,-0.021,103.0,101.0,101.0,13.4,1505.2,327.6,-0.8,1.8,2470.49,13.28,0.057,281.1
2021-08-01T07:25:02,42.805,6.029,-0.036,0.017,0.016,103.0,105.0,101.0,13.4,1505.2,328.4,-0.7,1.8,2470.518,13.28,0.039,295.3
2021-08-01T07:28:02,42.805,6.029,-0.039,0.006,-0.013,103.0,101.0,101.0,13.4,1505.2,325.3,-0.8,1.8,2470.54,13.28,0.039,278.7
2021-08-01T07:31:03,42.805,6.029,-0.025,0.012,-0.007,102.0,102.0,101.0,13.3,1505.2,329.8,-0.8,1.9,2470.527,13.28,0.027,295.6
2021-08-01T07:34:03,42.805,6.029,-0.036,-0.002,-0.014,101.0,102.0,101.0,13.4,1505.2,325.8,-0.8,1.8,2470.545,13.28,0.036,266.8
2021-08-01T07:37:02,42.805,6.029,-0.03,0.016,-0.007,103.0,101.0,101.0,13.4,1505.2,327.7,-0.8,1.8,2470.537,13.28,0.034,298.1
2021-08-01T07:40:02,42.805,6.029,-0.045,0.0,0.022,101.0,103.0,102.0,13.3,1505.2,327.6,-0.8,1.8,2470.541,13.28,0.045,270.0
2021-08-01T07:43:02,42.805,6.029,-0.036,0.004,0.009,102.0,101.0,101.0,13.4,1505.2,328.6,-0.8,1.8,2470.481,13.28,0.036,276.3
2021-08-01T07:46:02,42.805,6.029,-0.059,0.0,0.004,103.0,102.0,101.0,13.4,1505.2,328.9,-0.7,1.8,2470.499,13.28,0.058,270.0
2021-08-01T07:49:03,42.805,6.029,-0.059,0.014,-0.005,103.0,102.0,101.0,13.4,1505.2,330.1,-0.7,1.8,2470.499,13.28,0.06,283.3
2021-08-01T07:52:02,42.805,6.029,-0.035,0.004,-0.005,102.0,102.0,101.0,13.4,1505.2,328.0,-0.8,1.9,2470.502,13.28,0.035,276.5
2021-08-01T07:55:02,42.805,6.029,-0.033,0.017,0.013,102.0,103.0,102.0,13.4,1505.2,328.1,-0.8,1.8,2470.564,13.28,0.037,297.3
2021-08-01T07:58:02,42.805,6.029,-0.029,0.012,0.0,101.0,103.0,101.0,13.4,1505.2,330.7,-0.8,1.8,2470.504,13.28,0.031,292.5
2021-08-01T08:04:02,42.805,6.029,-0.017,0.021,0.017,101.0,102.0,101.0,13.3,1505.2,328.6,-0.8,1.8,2470.55,13.28,0.027,321.0
2021-08-01T08:07:02,42.805,6.029,-0.017,0.003,0.011,101.0,101.0,101.0,13.4,1505.2,327.1,-0.7,1.9,2470.531,13.28,0.017,280.0
2021-08-01T08:10:03,42.805,6.029,-0.026,0.002,-0.006,102.0,102.0,101.0,13.4,1505.2,326.8,-0.7,1.9,2470.534,13.28,0.026,274.4
2021-08-01T08:13:03,42.805,6.029,-0.022,0.025,0.033,102.0,101.0,100.0,13.4,1505.2,328.5,-0.8,1.9,2470.493,13.28,0.033,318.7
2021-08-01T08:16:02,42.805,6.029,-0.035,0.007,-0.006,103.0,102.0,101.0,13.4,1505.2,327.8,-0.7,1.8,2470.547,13.28,0.035,281.3
2021-08-01T08:19:02,42.805,6.029,-0.02,-0.008,0.005,101.0,102.0,101.0,13.4,1505.2,328.3,-0.7,1.8,2470.47,13.28,0.021,248.2
2021-08-01T08:22:02,42.805,6.029,-0.011,-0.015,-0.005,101.0,102.0,101.0,13.4,1505.2,328.3,-0.7,1.9,2470.554,13.28,0.018,216.3
2021-08-01T08:25:03,42.805,6.029,-0.059,0.03,-0.007,102.0,103.0,101.0,13.4,1505.2,329.9,-0.8,1.8,2470.533,13.28,0.066,296.9
2021-08-01T08:28:03,42.805,6.029,-0.034,0.003,-0.005,102.0,101.0,102.0,13.4,1505.2,329.5,-0.8,1.8,2470.523,13.28,0.034,275.0
2021-08-01T08:31:03,42.805,6.029,-0.01,-0.011,0.016,102.0,102.0,101.0,13.4,1505.2,329.0,-0.8,1.8,2470.526,13.28,0.014,222.3
2021-08-01T08:34:02,42.805,6.029,-0.027,-0.003,0.002,101.0,102.0,100.0,13.4,1505.2,325.7,-0.7,1.8,2470.5,13.28,0.027,263.7
2021-08-01T08:37:02,42.805,6.029,-0.032,0.005,-0.001,102.0,102.0,101.0,13.4,1505.2,327.8,-0.7,1.8,2470.518,13.28,0.032,278.9
2021-08-01T08:40:03,42.805,6.029,-0.05,0.017,0.023,102.0,103.0,101.0,13.3,1505.2,325.4,-0.8,1.8,2470.535,13.28,0.052,288.8
2021-08-01T08:43:03,42.805,6.029,-0.07,-0.002,-0.027,102.0,102.0,100.0,13.4,1505.2,328.9,-0.8,1.8,2470.513,13.29,0.07,268.4
2021-08-01T08:46:03,42.805,6.029,-0.017,0.002,-0.01,102.0,102.0,101.0,13.4,1505.2,330.4,-0.8,1.8,2470.501,13.29,0.017,276.7
2021-08-01T08:49:03,42.805,6.029,-0.03,0.004,-0.011,103.0,100.0,101.0,13.4,1505.2,330.3,-0.7,1.8,2470.489,13.29,0.03,277.6
2021-08-01T08:52:02,42.805,6.029,-0.014,-0.005,0.027,104.0,101.0,101.0,13.4,1505.2,330.0,-0.8,1.9,2470.539,13.29,0.014,250.4
2021-08-01T08:55:03,42.805,6.029,-0.011,0.0,0.019,102.0,103.0,101.0,13.3,1505.2,326.5,-0.7,1.8,2470.52,13.29,0.011,270.0
2021-08-01T08:58:03,42.805,6.029,-0.037,-0.003,0.006,103.0,103.0,101.0,13.4,1505.2,327.2,-0.8,1.8,2470.494,13.29,0.037,265.4
2021-08-01T09:04:02,42.805,6.029,-0.024,0.013,0.009,102.0,102.0,101.0,13.4,1505.2,328.6,-0.8,1.9,2470.521,13.28,0.027,298.4
2021-08-01T09:07:02,42.805,6.029,-0.018,-0.012,-0.012,102.0,101.0,102.0,13.4,1505.2,328.8,-0.8,1.8,2470.531,13.28,0.021,236.3
2021-08-01T09:10:03,42.805,6.029,-0.028,0.003,-0.001,103.0,102.0,101.0,13.3,1505.2,328.7,-0.8,1.8,2470.56,13.28,0.028,276.1
2021-08-01T09:13:03,42.805,6.029,-0.025,-0.011,-0.024,100.0,103.0,102.0,13.4,1505.2,325.6,-0.7,1.8,2470.542,13.28,0.027,246.3
2021-08-01T09:16:03,42.805,6.029,-0.013,0.002,-0.024,102.0,102.0,101.0,13.4,1505.2,328.2,-0.7,1.8,2470.53,13.29,0.013,278.7
2021-08-01T09:19:03,42.805,6.029,-0.015,0.005,0.019,101.0,102.0,102.0,13.3,1505.2,329.2,-0.7,1.8,2470.569,13.29,0.015,288.4
2021-08-01T09:22:02,42.805,6.029,-0.036,0.018,-0.002,102.0,103.0,101.0,13.4,1505.2,329.3,-0.7,1.8,2470.53,13.29,0.04,296.6
2021-08-01T09:25:03,42.805,6.029,0.009,-0.008,-0.019,102.0,103.0,101.0,13.4,1505.2,330.6,-0.7,1.8,2470.495,13.29,0.012,131.6
2021-08-01T09:28:03,42.805,6.029,-0.019,0.003,-0.015,103.0,100.0,101.0,13.4,1505.2,328.1,-0.8,1.8,2470.503,13.29,0.019,279.0
2021-08-01T09:31:03,42.805,6.029,-0.018,0.021,0.029,102.0,102.0,102.0,13.4,1505.2,328.4,-0.8,1.8,2470.528,13.29,0.027,319.4
2021-08-01T09:34:03,42.805,6.029,-0.015,0.005,0.034,101.0,105.0,100.0,13.4,1505.2,327.9,-0.8,1.8,2470.538,13.29,0.015,288.4
2021-08-01T09:37:02,42.805,6.029,-0.027,0.027,-0.008,102.0,102.0,101.0,13.4,1505.2,330.7,-0.8,1.8,2470.533,13.29,0.038,315.0
2021-08-01T09:40:03,42.805,6.029,-0.031,0.008,0.007,103.0,102.0,101.0,13.4,1505.2,326.0,-0.8,1.8,2470.508,13.29,0.032,284.5
2021-08-01T09:43:03,42.805,6.029,-0.018,0.002,0.028,104.0,101.0,101.0,13.3,1505.2,326.8,-0.8,1.8,2470.525,13.29,0.018,276.3
2021-08-01T09:46:03,42.805,6.029,-0.044,-0.005,0.006,102.0,102.0,101.0,13.4,1505.2,328.4,-0.8,1.8,2470.55,13.29,0.044,263.5
2021-08-01T09:49:03,42.805,6.029,-0.033,0.0,-0.018,102.0,102.0,101.0,13.4,1505.2,325.8,-0.7,1.9,2470.472,13.29,0.033,270.0
2021-08-01T09:52:02,42.805,6.029,-0.038,0.008,0.001,102.0,102.0,100.0,13.4,1505.2,330.6,-0.7,1.8,2470.559,13.29,0.038,281.9
2021-08-01T09:55:03,42.805,6.029,-0.003,-0.025,-0.004,102.0,103.0,101.0,13.4,1505.2,326.3,-0.7,1.8,2470.512,13.29,0.025,186.8